[[{"header":{"parameterUnit":"m.s-1","parameterCategory":1,"la1":30.2991,"la2":30.254,"lo1":-89.0895,"lo2":-89.0444,"dy":0.0017,"dx":0.0017,"nx":28,"ny":28,"refTime":"2025-12-25T03:00:00:Z","depth":0,"parameterNumber":2,"parameterNumberName":"U-component_of_WINDS"},"data":[0,0,0,0,0,0,0,0,0,0,0,0,0,0,0,0,0,0,0,0,0,0,0,0,0,0,0,0,0,0,0,0,0,0,0,0,0,0,0,0,0,0,0,0,0,0,0,0,0,0,0,0,0,0,0,0,0,0,1.6494,1.6495,0,1.6646,1.6647,1.6649,1.6693,1.6692,1.6691,1.6691,1.6848,1.6853,1.6858,0,0,0,0,0,0,0,0,0,0,0,0,0,1.6244,1.6249,1.6494,1.6495,1.6497,1.6645,1.6648,1.665,1.6693,1.6692,1.6691,1.669,1.6846,1.6852,1.6858,0,0,0,0,0,0,0,0,0,0,0,0,0,1.637,1.625,1.6493,1.6537,1.6542,1.6645,1.6648,1.665,1.6693,1.6692,1.6691,1.669,1.6845,1.6852,1.6859,1.693,0,0,1.6882,1.6885,0,0,0,0,0,0,0,0,1.6363,1.6379,1.6529,1.6534,1.654,1.6649,1.6617,1.6744,1.6694,1.6636,1.6691,1.6689,1.6783,1.6795,1.6827,1.6937,1.6944,1.6882,1.6887,1.689,1.6892,0,0,0,0,0,0,0,1.6354,1.6373,1.6554,1.6531,1.6538,1.655,1.6567,1.6642,1.6715,1.6641,1.6645,1.6662,1.6786,1.6819,1.6831,1.6946,1.6882,1.6889,1.6893,1.6896,1.7124,1.7126,0,0,0,0,0,0,1.6338,1.6365,1.6549,1.6558,1.6447,1.6556,1.6574,1.6616,1.6714,1.6728,1.6663,1.6663,1.6807,1.6822,1.6836,1.6927,1.689,1.6897,1.6901,1.7123,1.7125,1.7126,0,0,0,0,0,0,1.6332,1.6353,1.6543,1.6463,1.6488,1.6561,1.6607,1.6619,1.6653,1.673,1.6744,1.6683,1.6807,1.6826,1.6907,1.6933,1.69,1.6907,1.7121,1.7123,1.7125,1.7107,0,0,0,0,0,0,1.6325,1.6351,1.6378,1.6463,1.6492,1.6609,1.6609,1.6623,1.6665,1.6667,1.6753,1.6766,1.6807,1.6895,1.6914,1.6942,1.6913,1.7119,1.7122,1.7125,1.7105,1.7108,1.711,0,0,0,0,0,1.6316,1.6366,1.6379,1.6401,1.6527,1.6611,1.6627,1.6673,1.6667,1.6695,1.6746,1.6764,1.6927,1.6903,1.6925,1.6955,1.7117,1.7121,1.7125,1.7104,1.7107,1.711,0,0,0,0,0,0,1.6282,1.6378,1.6393,1.6473,1.6533,1.6618,1.6654,1.6675,1.6739,1.6738,1.6793,1.6812,1.6889,1.6931,1.6902,1.703,1.7023,1.7031,1.7,1.7004,1.7006,1.6995,1.6919,0,0,0,0,0,1.6284,1.6343,1.6425,1.6487,1.6517,1.658,1.6619,1.6649,1.6714,1.674,1.6796,1.6859,1.6925,1.6967,1.7031,1.7112,1.7132,1.7144,1.7147,1.7148,1.7154,1.7202,1.7208,1.7138,1.7138,1.7138,0,0,1.6289,1.6349,1.6383,1.6482,1.6532,1.6594,1.6601,1.6666,1.6712,1.675,1.6829,1.6873,1.6947,1.7028,1.7067,1.7065,1.7179,1.7153,1.7154,1.7159,1.7206,1.7213,1.7219,1.7141,1.714,1.714,0,0,1.6328,1.6379,1.6437,1.6488,1.6564,1.6606,1.662,1.6703,1.6733,1.6814,1.6844,1.69,1.7012,1.7064,1.7105,1.7167,1.7186,1.7187,1.72,1.7245,1.7251,1.7256,1.7279,1.7286,1.7193,1.7193,1.7193,0,1.6324,1.6417,1.6465,1.6528,1.6571,1.6609,1.6669,1.6716,1.681,1.6839,1.6836,1.6978,1.7031,1.7125,1.7141,1.7172,1.7191,1.7176,1.7246,1.7252,1.7257,1.728,1.7288,1.7192,1.7192,1.7192,1.7192,0,1.6409,1.6473,1.6511,1.66,1.6648,1.6709,1.6768,1.6811,1.6838,1.6881,1.6964,1.7029,1.7108,1.7133,1.7159,1.7232,1.7228,1.7235,1.7229,1.7263,1.7285,1.7294,1.7191,1.7192,1.7192,1.7192,0,0,1.643,1.6546,1.6559,1.6601,1.6689,1.674,1.6804,1.6881,1.6917,1.6982,1.7037,1.7132,1.7139,1.7186,1.7219,1.7259,1.7305,1.7261,1.7264,1.7267,1.739,1.7384,1.7393,1.7319,1.7321,1.7322,1.7384,0,1.648,1.6595,1.6641,1.6734,1.6795,1.6833,1.6889,1.6949,1.6992,1.7051,1.7098,1.7165,1.7169,1.7198,1.7239,1.729,1.733,1.7287,1.7372,1.7375,1.7352,1.7405,1.7398,1.7453,1.7393,1.7394,1.7396,0,1.6554,1.6619,1.6718,1.68,1.6827,1.6876,1.6952,1.7007,1.7078,1.7106,1.7159,1.7191,1.7261,1.7251,1.7349,1.7318,1.7356,1.7387,1.7391,1.74,1.7387,1.7416,1.7472,1.748,1.7409,1.7408,1.7407,0,1.656,1.6672,1.6746,1.6781,1.6878,1.6912,1.6955,1.7024,1.7068,1.7134,1.7164,1.7238,1.7278,1.7335,1.7387,1.7374,1.748,1.7474,1.7507,1.7505,1.7527,1.7524,1.759,1.7551,1.7551,1.7551,1.7551,0,1.6611,1.6671,1.675,1.6796,1.6864,1.6918,1.6984,1.703,1.7091,1.7147,1.7185,1.7237,1.7302,1.7362,1.7403,1.7479,1.7497,1.7523,1.7533,1.7519,1.7516,1.7544,1.7542,1.7553,1.7553,1.7552,1.7552,0,1.6629,1.6684,1.6768,1.6854,1.6877,1.6923,1.6998,1.7044,1.7089,1.716,1.718,1.7251,1.7325,1.7382,1.7478,1.7505,1.7586,1.7597,1.7561,1.7567,1.7596,1.7592,1.7682,1.7697,1.7648,1.7648,1.7648,0,1.6657,1.6704,1.6795,1.6835,1.6877,1.6941,1.6987,1.7042,1.7088,1.7173,1.721,1.7287,1.735,1.7467,1.7528,1.7602,1.7615,1.7642,1.7626,1.7612,1.7616,1.7612,1.7618,1.7643,1.7643,1.7643,1.7644,0,1.6703,1.6729,1.6792,1.6866,1.6919,1.698,1.7042,1.7073,1.714,1.719,1.7266,1.7315,1.7414,1.749,1.7571,1.7616,1.7642,1.7648,1.766,1.7646,1.7624,1.7637,1.7566,1.7645,1.7645,1.7645,1.7645,1.7645,1.6728,1.6771,1.6842,1.6913,1.6965,1.7022,1.7071,1.7122,1.7186,1.727,1.73,1.7378,1.745,1.7561,1.7607,1.767,1.7671,1.7688,1.7692,1.7695,1.7694,1.7614,1.7685,1.7685,1.7685,1.7685,1.7685,0,1.6775,1.6823,1.6887,1.6973,1.7028,1.7048,1.7118,1.7163,1.7231,1.7296,1.7358,1.7447,1.7521,1.7588,1.7666,1.7704,1.7718,1.7723,1.772,1.7731,1.7689,1.7671,1.771,1.771,1.771,1.771,1.771,1.771,1.6806,1.6882,1.6916,1.7019,1.7067,1.7144,1.7182,1.7236,1.7288,1.7384,1.7446,1.749,1.7556,1.764,1.7709,1.7727,1.7754,1.7756,1.7777,1.7737,1.7733,1.773,1.7714,1.7762,1.7762,1.7814,1.7815,1.7815]},{"header":{"parameterUnit":"m.s-1","parameterCategory":1,"la1":30.2991,"la2":30.254,"lo1":-89.0895,"lo2":-89.0444,"dy":0.0017,"dx":0.0017,"nx":28,"ny":28,"refTime":"2025-12-25T03:00:00:Z","depth":0,"parameterNumber":3,"parameterNumberName":"V-component_of_WINDS"},"data":[0,0,0,0,0,0,0,0,0,0,0,0,0,0,0,0,0,0,0,0,0,0,0,0,0,0,0,0,0,0,0,0,0,0,0,0,0,0,0,0,0,0,0,0,0,0,0,0,0,0,0,0,0,0,0,0,0,0,-0.3598,-0.3598,0,-0.3598,-0.3598,-0.3598,-0.3597,-0.3597,-0.3597,-0.3597,-0.3597,-0.3597,-0.3597,0,0,0,0,0,0,0,0,0,0,0,0,0,-0.3599,-0.3599,-0.3598,-0.3598,-0.3598,-0.3598,-0.3598,-0.3598,-0.3597,-0.3597,-0.3597,-0.3597,-0.3597,-0.3597,-0.3597,0,0,0,0,0,0,0,0,0,0,0,0,0,-0.3599,-0.3599,-0.3598,-0.3598,-0.3598,-0.3598,-0.3598,-0.3598,-0.3597,-0.3597,-0.3597,-0.3597,-0.3597,-0.3597,-0.3597,-0.3597,0,0,-0.3597,-0.3597,0,0,0,0,0,0,0,0,-0.3599,-0.3599,-0.3598,-0.3598,-0.3598,-0.3597,-0.3598,-0.3597,-0.3597,-0.3597,-0.3597,-0.3597,-0.3597,-0.3597,-0.3597,-0.3597,-0.3597,-0.3597,-0.3597,-0.3597,-0.3597,0,0,0,0,0,0,0,-0.3599,-0.3599,-0.3598,-0.3598,-0.3598,-0.3598,-0.3598,-0.3598,-0.3597,-0.3597,-0.3597,-0.3597,-0.3597,-0.3597,-0.3597,-0.3597,-0.3597,-0.3597,-0.3597,-0.3597,-0.3597,-0.3597,0,0,0,0,0,0,-0.3599,-0.3599,-0.3598,-0.3598,-0.3598,-0.3598,-0.3598,-0.3598,-0.3597,-0.3597,-0.3597,-0.3597,-0.3597,-0.3597,-0.3597,-0.3597,-0.3597,-0.3597,-0.3597,-0.3597,-0.3597,-0.3597,0,0,0,0,0,0,-0.3599,-0.3599,-0.3598,-0.3598,-0.3598,-0.3598,-0.3598,-0.3598,-0.3597,-0.3597,-0.3597,-0.3597,-0.3597,-0.3597,-0.3597,-0.3597,-0.3597,-0.3597,-0.3597,-0.3597,-0.3597,-0.3597,0,0,0,0,0,0,-0.3599,-0.3599,-0.3599,-0.3598,-0.3598,-0.3598,-0.3598,-0.3598,-0.3597,-0.3597,-0.3597,-0.3597,-0.3597,-0.3597,-0.3597,-0.3597,-0.3597,-0.3597,-0.3597,-0.3597,-0.3597,-0.3597,-0.3597,0,0,0,0,0,-0.3599,-0.3599,-0.3599,-0.3598,-0.3598,-0.3598,-0.3598,-0.3598,-0.3597,-0.3597,-0.3597,-0.3597,-0.3597,-0.3597,-0.3597,-0.3597,-0.3597,-0.3597,-0.3597,-0.3597,-0.3597,-0.3597,0,0,0,0,0,0,-0.3599,-0.3598,-0.3598,-0.3598,-0.3598,-0.3598,-0.3598,-0.3598,-0.3597,-0.3597,-0.3597,-0.3597,-0.3597,-0.3597,-0.3597,-0.3597,-0.3597,-0.3597,-0.3597,-0.3597,-0.3597,-0.3597,-0.3597,0,0,0,0,0,-0.3599,-0.3598,-0.3598,-0.3598,-0.3598,-0.3598,-0.3598,-0.3598,-0.3598,-0.3597,-0.3597,-0.3597,-0.3597,-0.3597,-0.3597,-0.3597,-0.3597,-0.3597,-0.3597,-0.3597,-0.3597,-0.3598,-0.3598,-0.3597,-0.3597,-0.3597,0,0,-0.3599,-0.3598,-0.3598,-0.3598,-0.3598,-0.3598,-0.3598,-0.3598,-0.3598,-0.3597,-0.3597,-0.3597,-0.3597,-0.3597,-0.3598,-0.3597,-0.3598,-0.3598,-0.3598,-0.3597,-0.3598,-0.3598,-0.3598,-0.3597,-0.3597,-0.3597,0,0,-0.3598,-0.3598,-0.3598,-0.3598,-0.3598,-0.3598,-0.3598,-0.3598,-0.3598,-0.3598,-0.3598,-0.3598,-0.3598,-0.3598,-0.3598,-0.3598,-0.3598,-0.3598,-0.3598,-0.3599,-0.3599,-0.3599,-0.3599,-0.3599,-0.3598,-0.3598,-0.3598,0,-0.3598,-0.3598,-0.3598,-0.3598,-0.3598,-0.3598,-0.3598,-0.3598,-0.3598,-0.3598,-0.3598,-0.3598,-0.3598,-0.3598,-0.3598,-0.3598,-0.3598,-0.3598,-0.3599,-0.3599,-0.3599,-0.3599,-0.3599,-0.3598,-0.3598,-0.3598,-0.3598,0,-0.3598,-0.3598,-0.3597,-0.3597,-0.3598,-0.3597,-0.3598,-0.3598,-0.3598,-0.3598,-0.3598,-0.3598,-0.3598,-0.3598,-0.3598,-0.3599,-0.3599,-0.3599,-0.3598,-0.3599,-0.3599,-0.3599,-0.3598,-0.3598,-0.3598,-0.3598,0,0,-0.3597,-0.3597,-0.3597,-0.3597,-0.3597,-0.3597,-0.3598,-0.3598,-0.3598,-0.3598,-0.3598,-0.3598,-0.3598,-0.3599,-0.3599,-0.3599,-0.3599,-0.3599,-0.3599,-0.3599,-0.36,-0.36,-0.36,-0.3599,-0.3599,-0.3599,-0.36,0,-0.3596,-0.3596,-0.3597,-0.3597,-0.3597,-0.3597,-0.3597,-0.3598,-0.3598,-0.3598,-0.3598,-0.3598,-0.3599,-0.3599,-0.3599,-0.3599,-0.3599,-0.3599,-0.36,-0.36,-0.3599,-0.36,-0.36,-0.36,-0.36,-0.36,-0.36,0,-0.3596,-0.3596,-0.3596,-0.3597,-0.3597,-0.3597,-0.3597,-0.3597,-0.3598,-0.3598,-0.3598,-0.3598,-0.3599,-0.3599,-0.3599,-0.3599,-0.36,-0.36,-0.36,-0.36,-0.36,-0.36,-0.36,-0.36,-0.36,-0.36,-0.36,0,-0.3595,-0.3596,-0.3596,-0.3596,-0.3596,-0.3596,-0.3597,-0.3597,-0.3597,-0.3598,-0.3598,-0.3598,-0.3599,-0.3599,-0.36,-0.36,-0.36,-0.36,-0.3601,-0.3601,-0.36,-0.36,-0.3601,-0.3601,-0.3601,-0.3601,-0.3601,0,-0.3595,-0.3595,-0.3595,-0.3595,-0.3596,-0.3596,-0.3596,-0.3597,-0.3597,-0.3597,-0.3598,-0.3598,-0.3599,-0.3599,-0.36,-0.36,-0.36,-0.3601,-0.3601,-0.36,-0.36,-0.36,-0.36,-0.3601,-0.3601,-0.3601,-0.3601,0,-0.3594,-0.3594,-0.3594,-0.3595,-0.3595,-0.3595,-0.3596,-0.3596,-0.3597,-0.3597,-0.3597,-0.3598,-0.3599,-0.3599,-0.36,-0.36,-0.3601,-0.3601,-0.3601,-0.3601,-0.3601,-0.3601,-0.3601,-0.3601,-0.3601,-0.3601,-0.3601,0,-0.3593,-0.3593,-0.3594,-0.3594,-0.3595,-0.3595,-0.3595,-0.3596,-0.3596,-0.3597,-0.3597,-0.3598,-0.3598,-0.3599,-0.36,-0.3601,-0.3601,-0.3601,-0.3601,-0.3601,-0.3601,-0.3601,-0.3601,-0.3601,-0.3601,-0.3601,-0.3601,0,-0.3592,-0.3593,-0.3593,-0.3594,-0.3594,-0.3594,-0.3595,-0.3595,-0.3596,-0.3596,-0.3597,-0.3597,-0.3598,-0.3599,-0.36,-0.3601,-0.3601,-0.3601,-0.3601,-0.3601,-0.36,-0.3601,-0.3601,-0.3601,-0.3601,-0.3601,-0.3601,-0.3601,-0.3592,-0.3592,-0.3592,-0.3593,-0.3593,-0.3594,-0.3594,-0.3595,-0.3595,-0.3596,-0.3597,-0.3597,-0.3598,-0.36,-0.36,-0.3601,-0.3601,-0.3601,-0.3601,-0.3601,-0.3601,-0.3601,-0.3601,-0.3601,-0.3601,-0.3601,-0.3601,0,-0.3591,-0.3591,-0.3592,-0.3592,-0.3593,-0.3593,-0.3594,-0.3595,-0.3595,-0.3596,-0.3596,-0.3597,-0.3598,-0.3599,-0.36,-0.3601,-0.3601,-0.3601,-0.3601,-0.3601,-0.3601,-0.3601,-0.3601,-0.3601,-0.3601,-0.3601,-0.3601,-0.3601,-0.359,-0.3591,-0.3591,-0.3592,-0.3592,-0.3593,-0.3593,-0.3594,-0.3595,-0.3596,-0.3596,-0.3597,-0.3598,-0.3599,-0.36,-0.36,-0.3601,-0.3601,-0.3601,-0.3601,-0.3601,-0.3601,-0.3601,-0.3601,-0.3601,-0.3601,-0.3601,-0.3601]}]]